Simultaneous Nadir Overpasses (SNOs) Predictions

Prediction of SNOs between TERRA and METOP-C Satellite Orbit:

Table of predicted SNOs for the next 14.0 days since TLE Epoch: 12/25/2021
Index Date (TERRA) Time (TERRA) Lat,Lon (TERRA) SZA (TERRA ) Date (METOP-C) Time (METOP-C) Lat,Lon (METOP-C) SZA (METOP-C ) Distance(km) Time Diff (sec)
1 12/26/2021 03:04:26 -81.20, -3.00 73.24 12/26/2021 03:03:12 -81.20, -2.89 73.25 1.95 74
2 12/26/2021 03:53:52 81.21, 164.74 106.78 12/26/2021 03:53:53 81.21, 164.76 106.79 0.78 1
3 12/26/2021 04:43:18 -81.22, -27.36 73.19 12/26/2021 04:44:31 -81.23, -27.23 73.14 2.40 73
4 12/28/2021 22:38:37 -81.20, 63.40 73.41 12/28/2021 22:37:36 -81.20, 63.30 73.44 1.67 61
5 12/28/2021 23:28:02 81.23,-128.52 106.66 12/28/2021 23:28:16 81.22,-128.69 106.64 3.06 14
6 12/31/2021 18:12:47 -81.21, 130.09 73.60 12/31/2021 18:11:58 -81.21, 130.23 73.60 2.39 49
7 12/31/2021 19:02:13 81.22, -62.22 106.41 12/31/2021 19:02:39 81.22, -62.17 106.43 0.89 26
8 01/03/2022 13:46:57 -81.20,-163.66 73.91 01/03/2022 13:46:21 -81.21,-163.63 73.92 0.67 36
9 01/03/2022 14:36:22 81.23, 4.36 106.15 01/03/2022 14:37:01 81.22, 4.30 106.15 1.14 39
10 01/06/2022 09:21:07 -81.21, -97.13 74.24 01/06/2022 09:20:44 -81.21, -97.15 74.25 0.23 23



Historial Predications of SNOs between TERRA and METOP-C
